Regional Weather Roundup
Issued by NWS

Home | Current Version | Previous Version | Graphics & Text | Print | Product List | Glossary On
Versions: 1 2 3 4 5 6 7 8 9 10 11 12 13 14 15 16 17 18 19 20 21 22 23 24 25 26 27 28 29 30 31 32 33 34 35 36 37 38 39 40 41 42 43 44 45 46 47 48 49
000
ASUS45 KSLC 130110
RWRUT

UTAH REGIONAL WEATHER ROUNDUP
NATIONAL WEATHER SERVICE SALT LAKE CITY UT
700 PM MDT SAT JUL 12 2014

UTZ001>011-023>025-130200-

NORTHERN UTAH

CITY           SKY/WX    TMP DP  RH WIND       PRES   REMARKS
HILL AFB       NOT AVBL
LOGAN          SUNNY     92  47  21 NW6       30.12F
OGDEN          SUNNY     92  45  19 VRB3      30.12F
PROVO AIRPORT  MOSUNNY   90  52  27 CALM      30.13
SALT LAKE CITY   N/A     93  46  19 NW9       30.10F
VERNAL         PTSUNNY   88  45  22 NW8       30.17F
WENDOVER       MOSUNNY   93  46  20 E7        30.11S
HEBER CITY     SUNNY     88  46  23 CALM      30.20F

$$

UTZ012>022-026-027-130200-

SOUTHERN UTAH

CITY           SKY/WX    TMP DP  RH WIND       PRES   REMARKS
BRYCE CANYON   PTSUNNY   82  41  23 NW12G22   30.33F
CEDAR CITY     SUNNY     90  40  17 NW10      30.16F
MILFORD        SUNNY     95  42  16 N13G18    30.11F HX  91
MOAB/CYNLANDS  SUNNY     96  41  15 CALM      30.03F HX  92
PRICE          MOSUNNY   87  48  25 NE18G24   30.20F
ST GEORGE      NOT AVBL

$$

REGIONAL REPORTS     COLORADO/ARIZONA

CITY           SKY/WX    TMP DP  RH WIND       PRES   REMARKS
CRAIG, CO      MOSUNNY   78  50  37 N10       30.25S
GRAND JUNCTION MOSUNNY   92  48  22 NE14      30.08S
RIFLE          PTSUNNY   86  53  32 S8        30.15F
MONTROSE       MOSUNNY   91  42  18 NW9       30.16S
CORTEZ         SUNNY     80  51  36 NE12      30.19F
PAGE, AZ       SUNNY     99  39  12 SE6       30.02F HX  94
GRAND CANYON   PTSUNNY   87  40  19 VRB7      30.25S
KINGMAN        MOSUNNY   97  38  13 W10G20    29.99F HX  92
FLAGSTAFF      PTSUNNY   79  47  32 SW8       30.27F

$$

REGIONAL REPORTS    NEVADA/IDAHO/WYOMING

CITY           SKY/WX    TMP DP  RH WIND       PRES   REMARKS
LAS VEGAS, NV  PTSUNNY  104  37  10 VRB6      29.86F HX  98
ELY            MOSUNNY   87  41  19 S8        30.23F
ELKO           MOSUNNY   94  41  16 MISG      30.16S HX  90
POCATELLO, ID  MOSUNNY   89  51  27 N15G23    30.17R
BURLEY         MOSUNNY   90  48  23 VRB3      30.13S
EVANSTON, WY   PTSUNNY   82  43  25 N10       30.35S
ROCK SPRINGS   PTSUNNY   81  39  22 NE9       30.32S

$$



USA.gov is the U.S. government's official web portal to all federal, state and local government web resources and services.